Location: ??????????
(48.4699°N, 37.9573°E)
Time: 20:12:23
(UTC+00:00)

Meteor 2-15 - Pass Details

Date: 20 January 2021
Orbit: 936 x 955 km, 82.5° (Epoch: 02 March)

Event Time Altitude Azimuth Distance (km) Brightness Sun altitude
Rises 16:30:29 0° 352° (N) 3,645 7.6 -23.2°
Reaches altitude 10° 16:33:02 10° 356° (N) 2,696 6.8 -23.6°
Maximum altitude 16:39:09 62° 77° (ENE) 1,074 4.4 -24.6°
Enters shadow 16:40:32 49° 127° (SE) 1,211 4.6 -24.8°
